Time,TemperatureF,DewpointF,PressureIn,WindDirection,WindDirectionDegrees,WindSpeedMPH,WindSpeedGustMPH,Humidity,HourlyPrecipIn,Conditions,Clouds,dailyrainin,SoftwareType,DateUTC
2013-10-03 00:13:00,64.1,63.0,29.94,East,82,0.0,2.0,95,0.00,,,0.00,weatherlink.com 1.10,2013-10-03 05:13:00,
2013-10-03 00:28:00,64.2,63.0,29.94,East,82,0.0,1.0,95,0.00,,,0.00,weatherlink.com 1.10,2013-10-03 05:28:00,
2013-10-03 00:43:00,64.3,63.0,29.94,East,82,0.0,1.0,96,0.00,,,0.00,weatherlink.com 1.10,2013-10-03 05:43:00,
2013-10-03 00:58:00,64.2,63.0,29.93,East,82,0.0,1.0,96,0.00,,,0.00,weatherlink.com 1.10,2013-10-03 05:58:00,
2013-10-03 01:13:00,64.2,63.0,29.93,East,82,0.0,1.0,96,0.00,,,0.00,weatherlink.com 1.10,2013-10-03 06:13:00,
2013-10-03 01:28:00,64.1,63.0,29.93,East,82,0.0,1.0,96,0.00,,,0.00,weatherlink.com 1.10,2013-10-03 06:28:00,
2013-10-03 01:43:00,64.0,63.0,29.93,East,82,0.0,1.0,97,0.00,,,0.00,weatherlink.com 1.10,2013-10-03 06:43:00,
2013-10-03 01:58:00,63.9,63.0,29.93,East,82,0.0,3.0,97,0.00,,,0.00,weatherlink.com 1.10,2013-10-03 06:58:00,
2013-10-03 02:13:00,63.4,63.0,29.92,East,82,0.0,2.0,97,0.00,,,0.00,weatherlink.com 1.10,2013-10-03 07:13:00,
2013-10-03 02:44:00,62.8,62.0,29.92,East,82,1.0,2.0,97,0.00,,,0.00,weatherlink.com 1.10,2013-10-03 07:44:00,
2013-10-03 02:59:00,62.9,62.0,29.91,East,82,0.0,1.0,97,0.00,,,0.00,weatherlink.com 1.10,2013-10-03 07:59:00,
2013-10-03 03:14:00,63.1,63.0,29.91,East,82,0.0,0.0,98,0.00,,,0.00,weatherlink.com 1.10,2013-10-03 08:14:00,
2013-10-03 03:29:00,63.6,63.0,29.91,East,82,2.0,3.0,98,0.00,,,0.00,weatherlink.com 1.10,2013-10-03 08:29:00,
2013-10-03 03:43:00,64.2,64.0,29.92,East,82,2.0,4.0,98,0.00,,,0.00,weatherlink.com 1.10,2013-10-03 08:43:00,
2013-10-03 03:59:00,65.1,65.0,29.92,SE,142,5.0,7.0,98,0.00,,,0.00,weatherlink.com 1.10,2013-10-03 08:59:00,
2013-10-03 04:14:00,65.3,65.0,29.92,South,178,4.0,5.0,98,0.00,,,0.00,weatherlink.com 1.10,2013-10-03 09:14:00,
2013-10-03 04:29:00,65.5,65.0,29.91,South,176,5.0,6.0,98,0.00,,,0.00,weatherlink.com 1.10,2013-10-03 09:29:00,
2013-10-03 04:44:00,65.5,65.0,29.90,South,176,4.0,5.0,99,0.00,,,0.00,weatherlink.com 1.10,2013-10-03 09:44:00,
2013-10-03 04:59:00,65.8,66.0,29.91,South,174,6.0,9.0,99,0.00,,,0.00,weatherlink.com 1.10,2013-10-03 09:59:00,
2013-10-03 05:14:00,65.9,66.0,29.90,SSE,168,3.0,7.0,99,0.00,,,0.00,weatherlink.com 1.10,2013-10-03 10:14:00,
2013-10-03 05:29:00,66.0,66.0,29.90,South,171,4.0,7.0,99,0.00,,,0.00,weatherlink.com 1.10,2013-10-03 10:29:00,
2013-10-03 05:43:00,66.1,66.0,29.90,South,174,1.0,8.0,99,0.00,,,0.00,weatherlink.com 1.10,2013-10-03 10:43:00,
2013-10-03 05:59:00,66.2,66.0,29.90,South,171,6.0,9.0,99,0.00,,,0.00,weatherlink.com 1.10,2013-10-03 10:59:00,
2013-10-03 06:14:00,66.3,66.0,29.90,South,172,3.0,5.0,99,0.00,,,0.00,weatherlink.com 1.10,2013-10-03 11:14:00,
2013-10-03 06:29:00,66.4,66.0,29.91,South,172,2.0,6.0,99,0.00,,,0.00,weatherlink.com 1.10,2013-10-03 11:29:00,
2013-10-03 06:44:00,66.5,66.0,29.91,South,172,4.0,5.0,99,0.00,,,0.00,weatherlink.com 1.10,2013-10-03 11:44:00,
2013-10-03 06:59:00,66.6,66.0,29.91,South,171,3.0,6.0,99,0.00,,,0.00,weatherlink.com 1.10,2013-10-03 11:59:00,
2013-10-03 07:14:00,66.7,66.0,29.91,South,172,4.0,6.0,99,0.00,,,0.00,weatherlink.com 1.10,2013-10-03 12:14:00,
2013-10-03 07:29:00,66.9,67.0,29.91,South,169,5.0,7.0,99,0.00,,,0.00,weatherlink.com 1.10,2013-10-03 12:29:00,
2013-10-03 07:44:00,66.9,67.0,29.91,South,171,4.0,9.0,99,0.00,,,0.00,weatherlink.com 1.10,2013-10-03 12:44:00,
2013-10-03 07:59:00,67.0,67.0,29.91,South,171,4.0,7.0,99,0.00,,,0.00,weatherlink.com 1.10,2013-10-03 12:59:00,
2013-10-03 08:14:00,67.1,67.0,29.91,South,172,2.0,5.0,99,0.00,,,0.00,weatherlink.com 1.10,2013-10-03 13:14:00,
2013-10-03 08:28:00,67.2,67.0,29.90,South,172,6.0,6.0,99,0.01,,,0.01,weatherlink.com 1.10,2013-10-03 13:28:00,
2013-10-03 08:43:00,67.3,67.0,29.91,South,172,2.0,5.0,99,0.02,,,0.02,weatherlink.com 1.10,2013-10-03 13:43:00,
2013-10-03 08:58:00,67.4,67.0,29.91,South,172,3.0,6.0,99,0.04,,,0.04,weatherlink.com 1.10,2013-10-03 13:58:00,
2013-10-03 09:13:00,67.6,67.0,29.91,SSE,165,2.0,9.0,99,0.04,,,0.04,weatherlink.com 1.10,2013-10-03 14:13:00,
2013-10-03 09:28:00,68.0,68.0,29.92,SSW,200,3.0,8.0,99,0.03,,,0.04,weatherlink.com 1.10,2013-10-03 14:28:00,
2013-10-03 09:43:00,68.2,68.0,29.91,South,189,5.0,9.0,99,0.08,,,0.10,weatherlink.com 1.10,2013-10-03 14:43:00,
2013-10-03 09:58:00,68.4,68.0,29.93,SSW,198,3.0,6.0,99,0.07,,,0.11,weatherlink.com 1.10,2013-10-03 14:58:00,
2013-10-03 10:13:00,68.3,68.0,29.93,SW,220,5.0,9.0,99,0.07,,,0.11,weatherlink.com 1.10,2013-10-03 15:13:00,
2013-10-03 10:28:00,67.8,68.0,29.92,SW,227,3.0,6.0,99,0.09,,,0.14,weatherlink.com 1.10,2013-10-03 15:28:00,
2013-10-03 10:43:00,67.3,67.0,29.91,SW,223,3.0,5.0,99,0.07,,,0.17,weatherlink.com 1.10,2013-10-03 15:43:00,
2013-10-03 10:58:00,67.0,67.0,29.91,SW,217,3.0,6.0,98,0.07,,,0.18,weatherlink.com 1.10,2013-10-03 15:58:00,
2013-10-03 11:13:00,67.3,67.0,29.91,SSW,192,4.0,8.0,99,0.08,,,0.19,weatherlink.com 1.10,2013-10-03 16:13:00,
2013-10-03 11:29:00,68.4,68.0,29.91,South,190,6.0,10.0,99,0.04,,,0.19,weatherlink.com 1.10,2013-10-03 16:29:00,
2013-10-03 11:44:00,69.4,69.0,29.91,SSW,198,7.0,11.0,99,0.02,,,0.19,weatherlink.com 1.10,2013-10-03 16:44:00,
2013-10-03 11:59:00,69.5,69.0,29.91,SSW,196,5.0,9.0,98,0.01,,,0.19,weatherlink.com 1.10,2013-10-03 16:59:00,
2013-10-03 12:14:00,69.8,69.0,29.91,SSW,213,6.0,12.0,98,0.00,,,0.19,weatherlink.com 1.10,2013-10-03 17:14:00,
2013-10-03 12:29:00,71.7,70.0,29.90,South,183,11.0,13.0,94,0.00,,,0.19,weatherlink.com 1.10,2013-10-03 17:29:00,
2013-10-03 12:44:00,72.6,69.0,29.90,SSW,203,9.0,14.0,89,0.00,,,0.19,weatherlink.com 1.10,2013-10-03 17:44:00,
2013-10-03 12:59:00,73.3,70.0,29.89,South,172,9.0,14.0,88,0.00,,,0.19,weatherlink.com 1.10,2013-10-03 17:59:00,
2013-10-03 13:14:00,73.8,69.0,29.88,SW,221,9.0,15.0,85,0.00,,,0.19,weatherlink.com 1.10,2013-10-03 18:14:00,
2013-10-03 13:29:00,74.8,70.0,29.87,SSW,205,5.0,14.0,85,0.00,,,0.19,weatherlink.com 1.10,2013-10-03 18:29:00,
2013-10-03 13:44:00,75.1,70.0,29.87,South,178,3.0,12.0,83,0.00,,,0.19,weatherlink.com 1.10,2013-10-03 18:44:00,
2013-10-03 13:59:00,75.1,70.0,29.86,SW,219,2.0,12.0,83,0.00,,,0.19,weatherlink.com 1.10,2013-10-03 18:59:00,
2013-10-03 14:14:00,75.7,70.0,29.85,SSW,199,4.0,9.0,82,0.00,,,0.19,weatherlink.com 1.10,2013-10-03 19:14:00,
2013-10-03 14:29:00,76.6,70.0,29.85,WSW,240,6.0,10.0,79,0.00,,,0.19,weatherlink.com 1.10,2013-10-03 19:29:00,
2013-10-03 14:44:00,77.6,70.0,29.84,SE,138,9.0,10.0,77,0.00,,,0.19,weatherlink.com 1.10,2013-10-03 19:44:00,
2013-10-03 14:59:00,78.6,70.0,29.84,South,182,7.0,11.0,76,0.00,,,0.19,weatherlink.com 1.10,2013-10-03 19:59:00,
2013-10-03 15:14:00,78.8,70.0,29.83,South,190,5.0,11.0,75,0.00,,,0.19,weatherlink.com 1.10,2013-10-03 20:14:00,
2013-10-03 15:29:00,79.4,70.0,29.83,SSW,196,4.0,7.0,74,0.00,,,0.19,weatherlink.com 1.10,2013-10-03 20:29:00,
2013-10-03 15:44:00,78.6,70.0,29.81,SSE,157,0.0,10.0,75,0.00,,,0.19,weatherlink.com 1.10,2013-10-03 20:44:00,
2013-10-03 15:59:00,78.4,70.0,29.81,SSE,158,3.0,10.0,75,0.00,,,0.19,weatherlink.com 1.10,2013-10-03 20:59:00,
2013-10-03 16:14:00,78.1,70.0,29.80,South,169,3.0,5.0,77,0.00,,,0.19,weatherlink.com 1.10,2013-10-03 21:14:00,
2013-10-03 16:30:00,74.9,69.0,29.81,SW,215,5.0,14.0,81,0.15,,,0.34,weatherlink.com 1.10,2013-10-03 21:30:00,
2013-10-03 16:45:00,72.7,69.0,29.82,South,175,5.0,13.0,88,0.20,,,0.39,weatherlink.com 1.10,2013-10-03 21:45:00,
2013-10-03 16:59:00,73.1,70.0,29.82,South,178,3.0,10.0,89,0.20,,,0.39,weatherlink.com 1.10,2013-10-03 21:59:00,
2013-10-03 17:15:00,73.7,70.0,29.81,South,184,3.0,8.0,89,0.20,,,0.39,weatherlink.com 1.10,2013-10-03 22:15:00,
2013-10-03 17:29:00,73.6,70.0,29.82,South,171,5.0,7.0,87,0.05,,,0.39,weatherlink.com 1.10,2013-10-03 22:29:00,
2013-10-03 17:44:00,73.1,68.0,29.83,South,173,8.0,10.0,85,0.00,,,0.39,weatherlink.com 1.10,2013-10-03 22:44:00,
2013-10-03 18:00:00,71.9,68.0,29.83,SSE,163,9.0,11.0,87,0.00,,,0.39,weatherlink.com 1.10,2013-10-03 23:00:00,
2013-10-03 18:15:00,71.2,68.0,29.83,South,178,3.0,6.0,88,0.00,,,0.39,weatherlink.com 1.10,2013-10-03 23:15:00,
2013-10-03 18:30:00,70.5,67.0,29.83,South,184,0.0,5.0,88,0.00,,,0.39,weatherlink.com 1.10,2013-10-03 23:30:00,
2013-10-03 18:45:00,69.5,65.0,29.83,South,169,2.0,7.0,86,0.00,,,0.39,weatherlink.com 1.10,2013-10-03 23:45:00,
2013-10-03 19:00:00,68.7,65.0,29.83,South,169,1.0,4.0,87,0.00,,,0.39,weatherlink.com 1.10,2013-10-04 00:00:00,
2013-10-03 19:15:00,68.4,65.0,29.84,South,169,0.0,4.0,88,0.00,,,0.39,weatherlink.com 1.10,2013-10-04 00:15:00,
2013-10-03 19:30:00,68.1,65.0,29.84,South,169,0.0,0.0,89,0.00,,,0.39,weatherlink.com 1.10,2013-10-04 00:30:00,
2013-10-03 19:45:00,68.0,65.0,29.83,SW,217,0.0,5.0,89,0.00,,,0.39,weatherlink.com 1.10,2013-10-04 00:45:00,
2013-10-03 20:00:00,67.9,65.0,29.84,SSE,148,1.0,5.0,89,0.00,,,0.39,weatherlink.com 1.10,2013-10-04 01:00:00,
2013-10-03 20:15:00,67.6,65.0,29.84,SSE,150,0.0,4.0,90,0.00,,,0.39,weatherlink.com 1.10,2013-10-04 01:15:00,
2013-10-03 20:30:00,67.4,65.0,29.84,South,178,0.0,7.0,91,0.00,,,0.39,weatherlink.com 1.10,2013-10-04 01:30:00,
2013-10-03 20:45:00,67.6,65.0,29.85,South,178,5.0,14.0,91,0.01,,,0.40,weatherlink.com 1.10,2013-10-04 01:45:00,
2013-10-03 21:00:00,68.4,65.0,29.88,SSW,195,6.0,15.0,90,0.01,,,0.40,weatherlink.com 1.10,2013-10-04 02:00:00,
2013-10-03 21:15:00,68.3,66.0,29.87,South,182,4.0,9.0,91,0.01,,,0.40,weatherlink.com 1.10,2013-10-04 02:15:00,
2013-10-03 21:30:00,67.8,66.0,29.87,SSW,192,6.0,12.0,93,0.01,,,0.40,weatherlink.com 1.10,2013-10-04 02:30:00,
2013-10-03 21:45:00,67.8,66.0,29.86,SSW,208,3.0,11.0,92,0.00,,,0.40,weatherlink.com 1.10,2013-10-04 02:45:00,
2013-10-03 22:00:00,67.7,65.0,29.87,SW,215,1.0,7.0,90,0.00,,,0.40,weatherlink.com 1.10,2013-10-04 03:00:00,
2013-10-03 22:15:00,67.4,65.0,29.87,SSW,205,2.0,5.0,90,0.00,,,0.40,weatherlink.com 1.10,2013-10-04 03:15:00,
2013-10-03 22:30:00,67.3,64.0,29.88,SSW,202,4.0,7.0,90,0.00,,,0.40,weatherlink.com 1.10,2013-10-04 03:30:00,
2013-10-03 22:45:00,67.0,64.0,29.89,SW,224,10.0,10.0,90,0.00,,,0.40,weatherlink.com 1.10,2013-10-04 03:45:00,
2013-10-03 23:00:00,66.8,64.0,29.89,SSW,202,2.0,5.0,91,0.00,,,0.40,weatherlink.com 1.10,2013-10-04 04:00:00,
2013-10-03 23:45:00,65.9,64.0,29.88,SSW,194,3.0,6.0,94,0.00,,,0.40,weatherlink.com 1.10,2013-10-04 04:45:00,